PHOTON-02

Last updated on Thu Apr 22 2021 00:02:03 GMT+0000 (Coordinated Universal Time)

1 47972U 21023H 21111.53571398 .00005649 00000-0 15700-3 0 9994 2 47972 45.0016 298.7155 0004679 72.9582 19.6626 15.37927182 4552
UTC large
Height (km)
Speed (km/s)
/
Latitude / Longitude
Inclination (degrees)
Orbital Period (minutes)
Azimuth
Elevation
Range (km)
Doppler Factor

Next 0 passes for location: London (51.5072 / 0.1276)

Sorry there are no passes over London.